RYR61LJ LEPA-LEZL

Flight info

Callsign RYR61LJ
Flight time N/A
Altitude 37000
Route EPAMA N733 VLC M985 MAMIS
Aircraft B738/M-SDE2E3FGHIRWXY/LB1

Departure

Time 2026-05-07 19:06
Airport Palma de Mallorca Airport (LEPA)

Arrival

Time N/A
Airport Seville Airport (LEZL)
Time Latitude Longitude Altitude Speed Heading
2026-05-07 18:39 39.54841 2.73838 35 ft 0 kts 268°
2026-05-07 18:54 39.54841 2.73840 35 ft 2 kts 268°
2026-05-07 18:54 39.54842 2.73873 35 ft 4 kts 265°
2026-05-07 18:54 39.54845 2.73908 35 ft 4 kts 261°
2026-05-07 18:55 39.54851 2.73942 35 ft 4 kts 252°
2026-05-07 18:55 39.54862 2.73971 34 ft 4 kts 218°
2026-05-07 18:55 39.54874 2.73978 32 ft 0 kts 148°
2026-05-07 18:59 39.54861 2.73987 35 ft 5 kts 157°
2026-05-07 18:59 39.54812 2.73979 35 ft 10 kts 214°
2026-05-07 18:59 39.54751 2.73965 34 ft 10 kts 154°
2026-05-07 18:59 39.54697 2.73936 35 ft 10 kts 236°
2026-05-07 19:00 39.54662 2.73862 35 ft 10 kts 239°
2026-05-07 19:00 39.54626 2.73782 35 ft 11 kts 240°
2026-05-07 19:00 39.54588 2.73718 35 ft 7 kts 236°
2026-05-07 19:00 39.54563 2.73659 35 ft 8 kts 242°
2026-05-07 19:01 39.54536 2.73593 35 ft 9 kts 242°
2026-05-07 19:01 39.54505 2.73522 35 ft 10 kts 239°
2026-05-07 19:01 39.54468 2.73445 35 ft 11 kts 238°
2026-05-07 19:01 39.54428 2.73360 35 ft 11 kts 239°
2026-05-07 19:02 39.54386 2.73270 35 ft 12 kts 238°
2026-05-07 19:02 39.54341 2.73177 33 ft 12 kts 238°
2026-05-07 19:02 39.54276 2.73147 35 ft 11 kts 144°
2026-05-07 19:02 39.54259 2.73186 35 ft 0 kts 112°
2026-05-07 19:04 39.54253 2.73204 34 ft 5 kts 111°
2026-05-07 19:04 39.54238 2.73268 35 ft 10 kts 103°
2026-05-07 19:04 39.54238 2.73384 34 ft 14 kts 82°
2026-05-07 19:04 39.54257 2.73451 33 ft 4 kts 59°
2026-05-07 19:05 39.54258 2.73454 34 ft 0 kts 59°
2026-05-07 19:05 39.54259 2.73456 34 ft 2 kts 59°
2026-05-07 19:06 39.54353 2.73653 33 ft 62 kts 58°
2026-05-07 19:06 39.55234 2.75494 350 ft 154 kts 57°
2026-05-07 19:06 39.55779 2.76647 1196 ft 147 kts 59°
2026-05-07 19:07 39.56328 2.77821 1761 ft 165 kts 59°
2026-05-07 19:07 39.56979 2.79216 2088 ft 195 kts 59°
2026-05-07 19:07 39.57703 2.80765 2618 ft 205 kts 59°
2026-05-07 19:07 39.58457 2.82374 3258 ft 211 kts 59°
2026-05-07 19:08 39.59227 2.84015 4011 ft 214 kts 59°
2026-05-07 19:08 39.59992 2.85648 4922 ft 213 kts 59°
2026-05-07 19:08 39.60771 2.87310 5684 ft 217 kts 59°
2026-05-07 19:08 39.61565 2.89003 6415 ft 224 kts 59°
2026-05-07 19:09 39.62397 2.90707 7187 ft 225 kts 50°
2026-05-07 19:09 39.63730 2.91738 7905 ft 232 kts 10°
2026-05-07 19:09 39.65323 2.91404 8579 ft 241 kts 331°
2026-05-07 19:09 39.66516 2.89858 9316 ft 247 kts 305°
2026-05-07 19:10 39.67231 2.87816 10019 ft 253 kts 285°
2026-05-07 19:10 39.67575 2.85571 10712 ft 255 kts 279°
2026-05-07 19:10 39.67876 2.83284 11391 ft 258 kts 279°
2026-05-07 19:10 39.68184 2.80985 12162 ft 259 kts 278°
2026-05-07 19:11 39.68420 2.78642 12853 ft 264 kts 275°
2026-05-07 19:11 39.68543 2.76257 13585 ft 266 kts 270°
2026-05-07 19:11 39.68649 2.73790 13925 ft 286 kts 283°
2026-05-07 19:11 39.69616 2.71414 13999 ft 316 kts 310°
2026-05-07 19:12 39.70978 2.69008 13964 ft 347 kts 297°
2026-05-07 19:12 39.72013 2.66057 13978 ft 371 kts 291°
2026-05-07 19:12 39.72948 2.62926 13965 ft 372 kts 290°
2026-05-07 19:12 39.73879 2.59782 13958 ft 372 kts 291°
2026-05-07 19:13 39.74837 2.56670 13950 ft 370 kts 291°
2026-05-07 19:13 39.75820 2.53592 13952 ft 368 kts 292°
2026-05-07 19:13 39.76829 2.50508 14112 ft 375 kts 292°
2026-05-07 19:13 39.77868 2.47372 14797 ft 378 kts 292°
2026-05-07 19:14 39.78909 2.44240 15648 ft 377 kts 292°
2026-05-07 19:14 39.79942 2.41133 16347 ft 382 kts 292°
2026-05-07 19:14 39.81014 2.37902 17042 ft 386 kts 292°
2026-05-07 19:14 39.82025 2.34706 17769 ft 388 kts 285°
2026-05-07 19:15 39.82372 2.31243 18441 ft 387 kts 265°
2026-05-07 19:15 39.81870 2.27825 19123 ft 385 kts 252°
2026-05-07 19:15 39.81095 2.24490 19788 ft 387 kts 251°
2026-05-07 19:15 39.80276 2.21144 20390 ft 390 kts 250°
2026-05-07 19:16 39.79444 2.17763 20967 ft 394 kts 250°
2026-05-07 19:16 39.78612 2.14355 21556 ft 397 kts 250°
2026-05-07 19:16 39.77781 2.10913 22136 ft 400 kts 250°
2026-05-07 19:16 39.76952 2.07445 22696 ft 404 kts 250°
2026-05-07 19:17 39.76119 2.03941 23266 ft 407 kts 250°
2026-05-07 19:17 39.75283 2.00416 23783 ft 409 kts 250°
2026-05-07 19:17 39.74443 1.96873 24270 ft 411 kts 250°
2026-05-07 19:17 39.73598 1.93312 24756 ft 413 kts 250°
2026-05-07 19:18 39.72749 1.89737 25233 ft 415 kts 250°
2026-05-07 19:18 39.71892 1.86138 25659 ft 418 kts 250°
2026-05-07 19:18 39.71029 1.82521 26091 ft 421 kts 249°
2026-05-07 19:18 39.70160 1.78882 26516 ft 423 kts 249°
2026-05-07 19:19 39.69283 1.75218 26916 ft 426 kts 249°
2026-05-07 19:19 39.68399 1.71527 27311 ft 429 kts 249°
2026-05-07 19:19 39.67509 1.67818 27708 ft 432 kts 249°
2026-05-07 19:19 39.66611 1.64085 28112 ft 434 kts 249°
2026-05-07 19:20 39.65721 1.60384 28510 ft 436 kts 249°
2026-05-07 19:20 39.64801 1.56567 28900 ft 439 kts 249°
2026-05-07 19:20 39.63899 1.52834 29268 ft 441 kts 249°
2026-05-07 19:20 39.62968 1.48984 29680 ft 442 kts 249°
2026-05-07 19:21 39.62064 1.45244 30200 ft 439 kts 249°
2026-05-07 19:21 39.61154 1.41490 30805 ft 433 kts 250°
2026-05-07 19:21 39.60303 1.37782 31494 ft 426 kts 256°
2026-05-07 19:21 39.59929 1.33951 32174 ft 420 kts 264°
2026-05-07 19:22 39.59737 1.30200 32838 ft 413 kts 265°
2026-05-07 19:22 39.59577 1.26512 33455 ft 407 kts 266°
2026-05-07 19:22 39.59414 1.22869 34037 ft 401 kts 266°
2026-05-07 19:22 39.59240 1.19274 34443 ft 399 kts 266°
2026-05-07 19:23 39.59056 1.15735 34686 ft 400 kts 265°
2026-05-07 19:23 39.58855 1.12083 34923 ft 401 kts 265°
2026-05-07 19:23 39.58654 1.08536 35244 ft 399 kts 265°
2026-05-07 19:23 39.58448 1.04955 35593 ft 397 kts 265°
2026-05-07 19:24 39.58241 1.01391 35901 ft 396 kts 265°
2026-05-07 19:24 39.58032 0.97828 36159 ft 397 kts 265°
2026-05-07 19:24 39.57823 0.94262 36426 ft 396 kts 265°
2026-05-07 19:24 39.57613 0.90707 36727 ft 395 kts 265°
2026-05-07 19:25 39.57403 0.87155 36970 ft 395 kts 265°
2026-05-07 19:25 39.57190 0.83580 36944 ft 400 kts 265°
2026-05-07 19:25 39.56759 0.76385 36953 ft 400 kts 265°
2026-05-07 19:26 39.56329 0.69271 36949 ft 393 kts 265°
2026-05-07 19:26 39.55898 0.62226 36966 ft 392 kts 265°
2026-05-07 19:27 39.55463 0.55201 36964 ft 391 kts 266°
2026-05-07 19:27 39.55024 0.48181 36961 ft 391 kts 266°
2026-05-07 19:28 39.54583 0.41164 36958 ft 391 kts 266°
2026-05-07 19:28 39.54137 0.34140 36966 ft 391 kts 266°
2026-05-07 19:29 39.53685 0.27104 36965 ft 392 kts 266°
2026-05-07 19:29 39.53227 0.20063 36966 ft 393 kts 266°
2026-05-07 19:30 39.52763 0.13013 36973 ft 393 kts 266°
2026-05-07 19:30 39.52297 0.05966 36966 ft 393 kts 266°
2026-05-07 19:31 39.51827 -0.01076 36963 ft 392 kts 266°
2026-05-07 19:31 39.51353 -0.08110 36976 ft 391 kts 266°
2026-05-07 19:32 39.50908 -0.14655 36984 ft 390 kts 266°
2026-05-07 19:32 39.50432 -0.21599 36992 ft 389 kts 266°
2026-05-07 19:33 39.49948 -0.28603 36989 ft 387 kts 266°
2026-05-07 19:33 39.49466 -0.35529 36981 ft 386 kts 266°
2026-05-07 19:34 39.48980 -0.42381 36992 ft 384 kts 265°
2026-05-07 19:34 39.47493 -0.49028 36992 ft 388 kts 250°
2026-05-07 19:35 39.44707 -0.55055 36998 ft 394 kts 239°
2026-05-07 19:35 39.41367 -0.60680 36985 ft 394 kts 238°
2026-05-07 19:36 39.38029 -0.66287 36988 ft 393 kts 238°
2026-05-07 19:36 39.34715 -0.71908 36985 ft 393 kts 239°
2026-05-07 19:37 39.31405 -0.77532 36990 ft 393 kts 239°
2026-05-07 19:37 39.28096 -0.83147 36993 ft 393 kts 239°
2026-05-07 19:38 39.24772 -0.88770 36985 ft 394 kts 239°
2026-05-07 19:38 39.21440 -0.94392 36998 ft 394 kts 239°
2026-05-07 19:39 39.18106 -1.00011 36998 ft 395 kts 239°
2026-05-07 19:39 39.15332 -1.04680 37001 ft 394 kts 239°
2026-05-07 19:40 39.11438 -1.11221 36992 ft 393 kts 239°
2026-05-07 19:40 39.08112 -1.16800 36993 ft 392 kts 239°
2026-05-07 19:41 39.05356 -1.21419 36998 ft 391 kts 239°
2026-05-07 19:41 39.02048 -1.26948 37004 ft 389 kts 239°
2026-05-07 19:42 38.98743 -1.32459 36997 ft 388 kts 239°
2026-05-07 19:42 38.95445 -1.37948 37001 ft 387 kts 239°
2026-05-07 19:43 38.92159 -1.43412 37003 ft 386 kts 239°
2026-05-07 19:43 38.88874 -1.48868 36999 ft 386 kts 239°
2026-05-07 19:44 38.85593 -1.54308 36999 ft 386 kts 239°
2026-05-07 19:44 38.82308 -1.59745 36992 ft 385 kts 239°
2026-05-07 19:45 38.79023 -1.65172 36993 ft 385 kts 239°
2026-05-07 19:45 38.75740 -1.70590 36988 ft 385 kts 239°
2026-05-07 19:46 38.72452 -1.76004 36997 ft 385 kts 238°
2026-05-07 19:46 38.69161 -1.81408 36985 ft 385 kts 238°
2026-05-07 19:47 38.65890 -1.86769 36997 ft 385 kts 238°
2026-05-07 19:47 38.62599 -1.92157 36996 ft 384 kts 238°
2026-05-07 19:48 38.60396 -1.95760 36992 ft 384 kts 238°